EW4944 Weather Reports


Display with metric or nautical units.
time (UTC)temp
F
wind
direction
speed
MPH
gust
MPH
rain 1hr
in
rain 24hr
in
rain mn
in
humidity
%
barometer
mb
20260508192059 62 323 6.0 20.0 0.00 0.00 0.00 53 1010.4
20260508191602 61 287 9.0 20.0 0.00 0.00 0.00 55 1010.2
20260508191059 61 265 7.0 15.0 0.00 0.00 0.00 50 1010.0
20260508190557 61 291 7.0 14.0 0.00 0.00 0.00 51 1010.2
20260508190108 61 310 4.0 13.0 0.00 0.00 0.00 54 1010.1
20260508185600 60 287 5.0 16.0 0.00 0.00 0.00 50 1010.0
20260508185056 61 262 6.0 16.0 0.00 0.00 0.00 50 1010.0
20260508184609 62 231 5.0 12.0 0.00 0.00 0.00 48 1010.0
20260508184056 63 302 5.0 11.0 0.00 0.00 0.00 47 1009.9
20260508183556 63 248 6.0 11.0 0.00 0.00 0.00 50 1009.9
20260508183114 62 261 4.0 9.0 0.00 0.00 0.00 54 1009.9
20260508182556 62 294 2.0 11.0 0.00 0.00 0.00 52 1010.1
20260508182056 62 238 3.0 17.0 0.00 0.00 0.00 51 1010.2
20260508181604 62 261 7.0 17.0 0.00 0.00 0.00 50 1010.3
20260508181059 61 278 5.0 14.0 0.00 0.00 0.00 53 1010.4
20260508180558 61 269 6.0 15.0 0.00 0.00 0.00 52 1010.3
20260508180119 61 275 5.0 16.0 0.00 0.00 0.00 52 1010.5
20260508175559 60 289 7.0 16.0 0.00 0.00 0.00 53 1010.6
20260508175057 59 289 7.0 16.0 0.00 0.00 0.00 54 1010.6
20260508174613 59 271 5.0 15.0 0.00 0.00 0.00 51 1010.4
20260508174057 59 234 5.0 14.0 0.00 0.00 0.00 49 1010.6
20260508173555 59 290 5.0 12.0 0.00 0.00 0.00 51 1010.1
20260508173058 59 306 4.0 12.0 0.00 0.00 0.00 50 1010.3
20260508172554 60 236 3.0 12.0 0.00 0.00 0.00 54 1010.3
20260508172057 60 196 5.0 12.0 0.00 0.00 0.00 50 1010.3
20260508171601 62 183 2.0 8.0 0.00 0.00 0.00 49 1010.3
20260508171100 61 303 3.0 12.0 0.00 0.00 0.00 47 1010.2
20260508170558 60 328 3.0 17.0 0.00 0.00 0.00 48 1010.4
20260508170106 60 295 4.0 17.0 0.00 0.00 0.00 47 1010.4
20260508165557 62 244 7.0 14.0 0.00 0.00 0.00 45 1010.4
20260508165058 63 311 3.0 20.0 0.00 0.00 0.00 49 1010.3
20260508164559 62 310 5.0 20.0 0.00 0.00 0.00 47 1010.3
20260508164058 61 194 9.0 17.0 0.00 0.00 0.00 49 1010.3
20260508163601 62 213 3.0 14.0 0.00 0.00 0.00 49 1010.3
20260508163057 62 280 5.0 14.0 0.00 0.00 0.00 47 1010.3
20260508162558 63 215 3.0 14.0 0.00 0.00 0.00 45 1010.3
20260508162058 62 297 6.0 14.0 0.00 0.00 0.00 48 1010.4
20260508161602 60 242 6.0 14.0 0.00 0.00 0.00 45 1010.5
20260508161058 61 263 6.0 11.0 0.00 0.00 0.00 44 1010.4
20260508160555 63 254 4.0 16.0 0.00 0.00 0.00 46 1010.6
20260508160058 61 306 7.0 16.0 0.00 0.00 0.00 47 1010.7
20260508155557 62 315 4.0 10.0 0.00 0.00 0.00 46 1010.6
20260508155054 63 275 5.0 12.0 0.00 0.00 0.00 44 1010.6
20260508154557 63 300 5.0 12.0 0.00 0.00 0.00 47 1010.8
20260508154057 62 272 6.0 13.0 0.00 0.00 0.00 49 1010.8
20260508153557 62 281 6.0 14.0 0.00 0.00 0.00 45 1010.7
20260508153059 62 283 5.0 14.0 0.00 0.00 0.00 49 1010.7
20260508152557 61 234 5.0 14.0 0.00 0.00 0.00 50 1010.8
20260508152057 59 281 4.0 14.0 0.00 0.00 0.00 53 1010.8
20260508151555 61 278 3.0 10.0 0.00 0.00 0.00 46 1010.8
20260508151058 62 284 3.0 13.0 0.00 0.00 0.00 54 1010.9
20260508150557 62 286 3.0 13.0 0.00 0.00 0.00 49 1010.9
20260508150056 62 270 3.0 10.0 0.00 0.00 0.00 47 1010.9
20260508145558 63 302 4.0 9.0 0.00 0.00 0.00 50 1010.8
20260508145057 62 346 2.0 10.0 0.00 0.00 0.00 53 1010.9
20260508144604 60 332 4.0 13.0 0.00 0.00 0.00 54 1011.0
20260508144059 60 292 6.0 13.0 0.00 0.00 0.00 50 1011.0
20260508143557 60 189 3.0 9.0 0.00 0.00 0.00 52 1011.0
20260508143100 61 283 4.0 10.0 0.00 0.00 0.00 50 1010.9
20260508142554 60 204 5.0 10.0 0.00 0.00 0.00 50 1010.9
20260508142057 60 273 3.0 9.0 0.00 0.00 0.00 50 1010.9
20260508141605 60 267 2.0 9.0 0.00 0.00 0.00 48 1011.0
20260508141053 60 325 3.0 9.0 0.00 0.00 0.00 52 1011.0
20260508140557 60 338 3.0 8.0 0.00 0.00 0.00 54 1010.9
20260508140059 59 254 2.0 8.0 0.00 0.00 0.00 53 1010.9
20260508135554 59 275 3.0 10.0 0.00 0.00 0.00 56 1011.0
20260508135057 59 292 3.0 10.0 0.00 0.00 0.00 58 1010.9
20260508134556 57 329 2.0 9.0 0.00 0.00 0.00 55 1010.9
20260508134056 57 240 1.0 11.0 0.00 0.00 0.00 60 1010.9
20260508133557 59 249 4.0 11.0 0.00 0.00 0.00 56 1011.0
20260508133057 59 298 2.0 10.0 0.00 0.00 0.00 59 1011.2
20260508132554 58 299 2.0 10.0 0.00 0.00 0.00 60 1011.3
20260508132057 58 266 2.0 8.0 0.00 0.00 0.00 61 1011.3
20260508131607 57 326 2.0 8.0 0.00 0.00 0.00 60 1011.4
20260508131054 57 231 3.0 8.0 0.00 0.00 0.00 59 1011.4
20260508130559 57 293 2.0 7.0 0.00 0.00 0.00 61 1011.4
20260508130057 56 292 2.0 7.0 0.00 0.00 0.00 60 1011.4
20260508125558 56 238 1.0 7.0 0.00 0.00 0.00 63 1011.4
20260508125055 56 229 3.0 7.0 0.00 0.00 0.00 61 1011.3
20260508124559 56 257 2.0 9.0 0.00 0.00 0.00 62 1011.4
20260508124057 55 284 2.0 9.0 0.00 0.00 0.00 62 1011.3
20260508123558 55 262 2.0 8.0 0.00 0.00 0.00 63 1011.3
20260508123115 55 0 2.0 8.0 0.00 0.00 0.00 63 1011.2
20260508122556 53 288 1.0 8.0 0.00 0.00 0.00 66 1011.2
20260508122056 53 0 2.0 10.0 0.00 0.00 0.00 65 1011.2
20260508121608 53 306 2.0 10.0 0.00 0.00 0.00 68 1011.2
20260508121054 53 0 3.0 10.0 0.00 0.00 0.00 66 1011.3
20260508120556 53 360 5.0 10.0 0.00 0.00 0.00 69 1011.4
20260508120110 52 297 3.0 7.0 0.00 0.00 0.00 70 1011.3
20260508115554 52 299 1.0 7.0 0.00 0.00 0.00 70 1011.4
20260508115056 51 274 1.0 7.0 0.00 0.00 0.00 69 1011.4
20260508114602 51 289 2.0 7.0 0.00 0.00 0.00 71 1011.4
20260508114058 51 0 1.0 6.0 0.00 0.00 0.00 73 1011.4
20260508113558 51 281 2.0 6.0 0.00 0.00 0.00 72 1011.2
20260508113110 50 271 2.0 6.0 0.00 0.00 0.00 73 1011.2
20260508112557 50 292 2.0 4.0 0.00 0.00 0.00 73 1011.2
20260508112057 49 299 1.0 4.0 0.00 0.00 0.00 75 1011.2
20260508111556 48 296 2.0 4.0 0.00 0.00 0.00 76 1011.2
20260508111058 48 296 1.0 4.0 0.00 0.00 0.00 79 1011.1
20260508110557 47 0 0.0 0.0 0.00 0.00 0.00 80 1011.2
20260508110108 46 0 0.0 0.0 0.00 0.00 0.00 83 1011.2
20260508105557 45 0 0.0 0.0 0.00 0.00 0.00 83 1011.2
20260508105056 45 0 0.0 2.0 0.00 0.00 0.00 82 1011.3
20260508104558 45 0 0.0 4.0 0.00 0.00 0.00 82 1011.1
20260508104056 45 0 0.0 4.0 0.00 0.00 0.00 82 1010.9
20260508103559 45 292 1.0 4.0 0.00 0.00 0.00 82 1010.9
20260508103107 45 0 0.0 4.0 0.00 0.00 0.00 81 1010.8
20260508102557 45 281 2.0 0.0 0.00 0.00 0.00 81 1010.8
20260508102057 46 0.0 0.0 0.00 0.00 0.00 81 1010.7
20260508101558 46 0.0 0.0 0.00 0.00 0.00 80 1010.6
20260508101057 46 0.0 0.0 0.00 0.00 0.00 80 1010.7
20260508100556 46 0.0 0.0 0.00 0.00 0.00 80 1010.7
20260508100056 46 0.0 0.0 0.00 0.00 0.00 80 1010.7
20260508095559 46 0.0 0.0 0.00 0.02 0.00 80 1010.5
20260508095057 46 0.0 0.0 0.00 0.02 0.00 80 1010.5
20260508094555 46 0.0 0.0 0.00 0.02 0.00 79 1010.3
20260508094056 46 0.0 0.0 0.00 0.02 0.00 79 1010.1
20260508093556 46 0.0 0.0 0.00 0.02 0.00 78 1010.1
20260508093105 47 0.0 0.0 0.00 0.02 0.00 78 1010.1
20260508092556 47 0.0 0.0 0.00 0.02 0.00 78 1010.0
20260508092056 46 0.0 0.0 0.00 0.02 0.00 78 1010.2
20260508091557 47 0.0 0.0 0.00 0.02 0.00 78 1010.2
20260508091056 46 0.0 0.0 0.00 0.02 0.00 78 1010.2
20260508090556 46 0.0 0.0 0.00 0.02 0.00 78 1010.3
20260508090113 46 0.0 0.0 0.00 0.02 0.00 78 1010.3
20260508085556 46 0.0 0.0 0.00 0.07 0.00 79 1010.3
20260508085055 46 0.0 0.0 0.00 0.07 0.00 79 1010.3
20260508084559 46 0.0 0.0 0.00 0.07 0.00 79 1010.2
20260508084059 46 0.0 0.0 0.00 0.07 0.00 78 1010.2
20260508083557 46 0.0 0.0 0.00 0.07 0.00 78 1010.1
20260508083100 46 0.0 0.0 0.00 0.07 0.00 78 1010.1
20260508082556 47 0.0 0.0 0.00 0.07 0.00 77 1010.3
20260508082056 47 0.0 0.0 0.00 0.07 0.00 76 1010.2
20260508081601 47 0.0 0.0 0.00 0.07 0.00 75 1010.2
20260508081054 47 0.0 0.0 0.00 0.07 0.00 74 1010.2
20260508080556 47 0.0 0.0 0.00 0.07 0.00 74 1010.2
20260508080057 47 0.0 0.0 0.00 0.07 0.00 74 1010.3
20260508075557 47 0.0 0.0 0.00 0.11 0.00 74 1010.3
20260508075056 47 0.0 0.0 0.00 0.11 0.00 74 1010.2
20260508074557 47 0.0 0.0 0.00 0.11 0.00 74 1010.3
20260508074058 47 0.0 0.0 0.00 0.11 0.00 73 1010.2
20260508073554 47 0.0 0.0 0.00 0.11 0.00 73 1010.2
20260508073055 47 0.0 0.0 0.00 0.11 0.00 72 1010.2
20260508072556 47 0.0 0.0 0.00 0.11 0.00 72 1010.3
20260508072057 47 0.0 0.0 0.00 0.11 0.00 72 1010.3
20260508071604 47 0.0 0.0 0.00 0.11 0.00 72 1010.4
20260508071053 48 0.0 0.0 0.00 0.11 0.00 72 1010.3
20260508070600 48 0.0 0.0 0.00 0.11 0.00 72 1010.2
20260508070056 48 0.0 0.0 0.00 0.11 0.00 70 1010.3
20260508065555 48 0.0 0.0 0.00 0.24 0.00 68 1010.3
20260508065054 48 0.0 0.0 0.00 0.24 0.00 66 1010.1
20260508064602 47 0.0 0.0 0.00 0.24 0.00 64 1009.8
20260508064057 47 0.0 0.0 0.00 0.24 0.00 64 1009.5
20260508063557 47 0.0 0.0 0.00 0.24 0.00 65 1009.3
20260508063104 47 0.0 0.0 0.00 0.24 0.00 65 1009.2
20260508062555 47 0.0 0.0 0.00 0.24 0.00 64 1009.1
20260508062053 47 0.0 0.0 0.00 0.24 0.00 62 1009.0
20260508061558 48 0.0 0.0 0.00 0.24 0.00 61 1008.8
20260508061057 48 0.0 0.0 0.00 0.24 0.00 62 1008.9
20260508060558 47 0.0 0.0 0.00 0.24 0.00 65 1009.0
20260508060055 47 0.0 0.0 0.00 0.24 0.00 66 1009.0
20260508055557 47 0.0 0.0 0.00 0.24 0.00 66 1008.9
20260508055056 47 0.0 0.0 0.00 0.24 0.00 66 1008.8
20260508054555 46 0.0 0.0 0.00 0.24 0.00 66 1008.7
20260508054055 46 0.0 0.0 0.00 0.24 0.00 68 1008.5
20260508053557 46 0.0 0.0 0.00 0.24 0.00 70 1008.7
20260508053105 45 0.0 0.0 0.00 0.24 0.00 72 1008.7
20260508052556 45 0.0 0.0 0.00 0.24 0.00 74 1008.7
20260508052101 45 0.0 0.0 0.00 0.24 0.00 75 1008.6
20260508051557 44 0.0 0.0 0.00 0.24 0.00 75 1008.7
20260508051054 44 0.0 0.0 0.00 0.24 0.00 74 1008.6
20260508050557 44 0.0 0.0 0.00 0.24 0.00 73 1008.6
20260508045557 45 0.0 0.0 0.00 0.24 0.00 72 1008.5
20260508045055 45 0.0 0.0 0.00 0.24 0.00 71 1008.6
20260508044556 45 0.0 0.0 0.00 0.24 0.00 71 1008.6
20260508044101 45 0.0 0.0 0.00 0.24 0.00 71 1008.6
20260508043558 45 0.0 0.0 0.00 0.24 0.00 71 1008.8
20260508043104 46 0.0 0.0 0.00 0.24 0.00 71 1008.8
20260508042559 46 0.0 0.0 0.00 0.24 0.00 70 1008.8
20260508042059 46 0.0 0.0 0.00 0.24 0.00 69 1008.8
20260508041601 47 0.0 0.0 0.00 0.24 0.00 69 1008.8
20260508041059 47 0.0 0.0 0.00 0.24 0.00 69 1008.9
20260508040559 47 0.0 0.0 0.00 0.24 0.00 69 1008.9
20260508040059 46 0.0 0.0 0.00 0.24 0.00 70 1009.0
20260508035600 46 0.0 0.0 0.00 0.24 0.24 70 1009.0
20260508035059 46 0.0 0.0 0.00 0.24 0.24 70 1008.9
20260508034612 46 0.0 0.0 0.00 0.24 0.24 70 1008.9
20260508034058 46 0.0 0.0 0.00 0.24 0.24 71 1009.0
20260508033559 46 0.0 0.0 0.00 0.24 0.24 72 1009.0
20260508033056 46 0.0 0.0 0.00 0.24 0.24 72 1009.0
20260508032559 46 0.0 0.0 0.00 0.24 0.24 72 1008.9
20260508032058 46 0.0 0.0 0.00 0.24 0.24 72 1009.0
20260508031556 46 0.0 0.0 0.00 0.24 0.24 72 1009.0
20260508031059 46 0.0 0.0 0.00 0.24 0.24 72 1009.1
20260508030558 47 0.0 0.0 0.00 0.24 0.24 71 1009.0
20260508030059 47 0.0 0.0 0.00 0.24 0.24 71 1009.1
20260508025558 47 0.0 0.0 0.00 0.28 0.24 70 1009.1
20260508025058 47 0.0 0.0 0.00 0.28 0.24 70 1009.1
20260508024556 47 0.0 0.0 0.00 0.28 0.24 70 1009.0
20260508024059 47 0.0 0.0 0.00 0.28 0.24 71 1009.1
20260508023559 47 0.0 0.0 0.00 0.28 0.24 71 1009.0
20260508023058 47 0.0 0.0 0.00 0.28 0.24 72 1009.0
20260508022559 47 0.0 0.0 0.00 0.28 0.24 72 1009.0
20260508022059 47 0.0 0.0 0.00 0.28 0.24 72 1009.0
20260508021601 47 0.0 0.0 0.00 0.28 0.24 72 1009.0
20260508021058 47 0.0 0.0 0.00 0.28 0.24 71 1008.8
20260508020558 47 0.0 0.0 0.00 0.28 0.24 71 1009.0
20260508020105 48 0.0 0.0 0.00 0.28 0.24 71 1008.9
20260508015558 48 0.0 0.0 0.00 0.28 0.24 71 1009.0
20260508015058 48 0.0 0.0 0.00 0.28 0.24 71 1008.8
20260508014558 48 0.0 0.0 0.00 0.28 0.24 70 1008.8
20260508014057 48 0.0 0.0 0.00 0.28 0.24 69 1008.8
20260508013557 48 0.0 0.0 0.00 0.28 0.24 69 1008.7
20260508013101 49 0.0 0.0 0.00 0.28 0.24 69 1008.6
20260508012554 49 0.0 0.0 0.00 0.28 0.24 68 1008.6
20260508012053 49 0.0 0.0 0.00 0.28 0.24 67 1008.6
20260508011604 50 0.0 0.0 0.00 0.28 0.24 65 1008.5
20260508011053 50 0.0 0.0 0.00 0.28 0.24 63 1008.6
20260508010557 50 0.0 0.0 0.00 0.28 0.24 61 1008.6
20260508010054 50 0.0 0.0 0.00 0.28 0.24 61 1008.4
20260508005600 50 0.0 0.0 0.00 0.28 0.24 63 1008.4
20260508005100 51 0.0 0.0 0.00 0.28 0.24 63 1008.3
20260508004556 51 0.0 0.0 0.00 0.28 0.24 60 1008.1
20260508004057 52 0.0 0.0 0.00 0.28 0.24 57 1008.2
20260508003554 52 0.0 0.0 0.00 0.28 0.24 55 1008.1
20260508003055 53 0.0 0.0 0.00 0.28 0.24 53 1007.8
20260508002556 53 0.0 0.0 0.00 0.28 0.24 53 1007.7
20260508002056 54 0.0 0.0 0.00 0.28 0.24 52 1007.7
20260508001613 54 0.0 0.0 0.00 0.28 0.24 53 1007.8
20260508001054 54 0.0 0.0 0.00 0.28 0.24 53 1007.9
20260508000556 54 0.0 0.0 0.00 0.28 0.24 52 1007.7
20260508000056 55 0.0 0.0 0.00 0.28 0.24 50 1007.7
20260507235600 55 0.0 0.0 0.00 0.28 0.24 51 1007.5
20260507235056 56 0.0 0.0 0.00 0.28 0.24 50 1007.5
20260507234557 56 1.0 1.0 0.00 0.28 0.24 49 1007.3
20260507234106 57 1.0 7.0 0.00 0.28 0.24 48 1007.3
20260507233557 57 0 1.0 7.0 0.00 0.28 0.24 47 1007.3
20260507233055 57 338 1.0 4.0 0.00 0.28 0.24 48 1007.2
20260507232557 57 360 1.0 7.0 0.00 0.28 0.24 48 1007.1
20260507232053 58 0 2.0 7.0 0.00 0.28 0.24 48 1007.2
20260507231557 58 329 0.0 6.0 0.00 0.28 0.24 45 1007.0
20260507231056 58 309 2.0 9.0 0.00 0.28 0.24 45 1007.1
20260507230557 58 283 3.0 9.0 0.00 0.28 0.24 45 1007.0
20260507230056 59 0 2.0 10.0 0.00 0.28 0.24 43 1007.0
20260507225556 59 310 3.0 13.0 0.00 0.28 0.24 45 1007.0
20260507225054 59 360 5.0 13.0 0.00 0.28 0.24 43 1006.9
20260507224600 60 342 2.0 11.0 0.00 0.28 0.24 45 1006.9
20260507224053 60 48 3.0 11.0 0.00 0.28 0.24 43 1006.9
20260507223557 60 58 3.0 9.0 0.00 0.28 0.24 43 1006.9
20260507223056 60 9 2.0 8.0 0.00 0.28 0.24 43 1006.9
20260507222555 60 335 1.0 8.0 0.00 0.28 0.24 46 1006.9
20260507222053 60 284 2.0 8.0 0.00 0.28 0.24 44 1006.9
20260507221557 60 297 3.0 10.0 0.00 0.28 0.24 44 1006.8
20260507221054 61 338 4.0 10.0 0.00 0.28 0.24 42 1006.9
20260507220558 61 284 3.0 11.0 0.00 0.28 0.24 41 1006.8
20260507220055 61 275 4.0 11.0 0.00 0.28 0.24 42 1006.8
20260507215555 61 269 4.0 11.0 0.00 0.28 0.24 44 1006.7
20260507215055 61 313 4.0 8.0 0.00 0.28 0.24 42 1006.8
20260507214559 61 286 3.0 8.0 0.00 0.28 0.24 42 1006.8
20260507214054 61 238 2.0 9.0 0.00 0.28 0.24 44 1006.7
20260507213556 61 275 3.0 9.0 0.00 0.28 0.24 44 1006.7
20260507213055 61 283 3.0 10.0 0.00 0.28 0.24 42 1006.8
20260507212557 61 313 4.0 11.0 0.00 0.28 0.24 45 1006.7
20260507212055 62 305 4.0 17.0 0.00 0.28 0.24 42 1006.6
20260507211555 62 30 4.0 17.0 0.00 0.28 0.24 39 1006.6
20260507211055 63 301 5.0 17.0 0.00 0.28 0.24 39 1006.5
20260507210558 63 296 3.0 9.0 0.00 0.28 0.24 42 1006.6
20260507210056 62 279 1.0 7.0 0.00 0.28 0.24 45 1006.5
20260507205555 61 300 1.0 9.0 0.00 0.29 0.24 44 1006.4
20260507205055 61 288 2.0 10.0 0.00 0.29 0.24 44 1006.5
20260507204558 62 304 3.0 10.0 0.00 0.29 0.24 43 1006.4
20260507204054 63 296 4.0 10.0 0.00 0.29 0.24 45 1006.4
20260507203555 63 291 4.0 11.0 0.00 0.29 0.24 40 1006.4
20260507203055 64 315 4.0 11.0 0.00 0.29 0.24 40 1006.4
20260507202559 63 290 4.0 12.0 0.00 0.29 0.24 43 1006.3
20260507202054 63 269 4.0 12.0 0.00 0.29 0.24 40 1006.3
20260507201600 64 329 5.0 15.0 0.00 0.29 0.24 39 1006.4
20260507201057 63 281 5.0 15.0 0.00 0.29 0.24 39 1006.5
20260507200556 64 298 5.0 11.0 0.00 0.29 0.24 39 1006.4
20260507200108 65 10 4.0 14.0 0.00 0.29 0.24 42 1006.6
20260507195553 63 350 5.0 14.0 0.00 0.29 0.24 43 1006.5
20260507195057 63 350 5.0 14.0 0.00 0.29 0.24 43 1006.6
20260507194554 64 53 8.0 14.0 0.00 0.29 0.24 42 1006.6
20260507194055 64 43 4.0 10.0 0.00 0.29 0.24 45 1006.7
20260507193554 65 262 3.0 10.0 0.00 0.29 0.24 46 1006.8
20260507193056 64 339 4.0 10.0 0.00 0.29 0.24 44 1006.9
20260507192555 63 307 3.0 11.0 0.00 0.29 0.24 43 1006.9